Location: Boiro
(42.6475°N, 8.8834°W)
Time: 22:50:23
(UTC+01:00)

A-11 Canister half - Pass Details

Date: 09 December 2021
Orbit: 1516 x 1684 km, 47.2° (Epoch: 18 January)

Event Time Altitude Azimuth Distance (km) Brightness Sun altitude
Rises 14:35:26 0° 295° (WNW) 4,894 11.6 22.7°
Reaches altitude 10° 14:39:00 10° 286° (WNW) 3,921 11.2 22.5°
Maximum altitude 14:47:26 32° 229° (SW) 2,605 11.6 22.0°
Drops below altitude 10° 14:55:56 10° 171° (S) 3,934 12.3 21.4°
Sets 14:59:33 0° 162° (SSE) 4,911 12.4 21.2°
